Weather reports worldwide

Advertisment
Tain Range, United Kingdom (3062): temperature & dewpoint: 11.11.2018 03:00:00 - 17.11.2018 03:00:00 (GMT)Tain Range, United Kingdom (3062): temperature -20cm & temperature -100cm: 11.11.2018 03:00:00 - 17.11.2018 03:00:00 (GMT)Tain Range, United Kingdom (3062): wind speed & gusts: 11.11.2018 03:00:00 - 17.11.2018 03:00:00 (GMT)Tain Range, United Kingdom (3062): wind direction: 11.11.2018 03:00:00 - 17.11.2018 03:00:00 (GMT)Tain Range, United Kingdom (3062): reduced air pressure: 11.11.2018 03:00:00 - 17.11.2018 03:00:00 (GMT)Tain Range, United Kingdom (3062): visibility: 11.11.2018 03:00:00 - 17.11.2018 03:00:00 (GMT)Tain Range, United Kingdom (3062): precipitation: 11.11.2018 03:00:00 - 17.11.2018 03:00:00 (GMT)
Date & Time tt [°C] td [°C] tt -20cm [°C] tt -100cm [°C] ff [km/h] ff [kn] fx [km/h] fx [kn] dd ppp [hPa] vv [km] rr [mm]
17.11.2018 03:00:00 - - - - - - - - - - - -
17.11.2018 02:00:00 2,0 2,0 - - 5 3 - - NNW 1027,6 0,1 0,0
17.11.2018 01:00:00 2,0 1,9 - - 8 4 - - WNW 1027,4 0,1 0,0
17.11.2018 00:00:00 2,0 1,9 - - 8 4 - - WNW 1027,2 0,2 -
16.11.2018 23:00:00 - - - - - - - - - - - -
16.11.2018 22:00:00 - - - - - - - - - - - -
16.11.2018 21:00:00 7,6 7,2 - - 5 3 - - ESE 1025,9 17 0,0
16.11.2018 20:00:00 7,8 6,6 - - 9 5 - - ESE 1025,6 21 0,0
16.11.2018 19:00:00 8,5 6,9 - - 15 8 - - SE 1025,3 30 0,0
16.11.2018 18:00:00 9,3 7,3 - - 15 8 - - SE 1024,8 35 0,0
16.11.2018 17:00:00 11,3 8,5 - - 16 9 - - ESE 1024,0 50 0,0
16.11.2018 16:00:00 9,9 8,0 - - 8 4 - - SE 1023,7 40 0,0
16.11.2018 15:00:00 10,6 7,2 - - 5 3 - - E 1023,3 21 0,0
16.11.2018 14:00:00 11,1 7,3 - - 8 4 - - ENE 1023,2 45 0,0
16.11.2018 13:00:00 11,3 6,6 - - 9 5 - - SE 1023,1 40 0,0
16.11.2018 12:00:00 10,2 5,3 - - 5 3 - - ESE 1023,2 26 0,0
16.11.2018 11:00:00 8,9 5,6 - - 11 6 - - E 1023,0 30 0,0
16.11.2018 10:00:00 7,4 4,8 - - 16 9 - - S 1022,8 40 0,2
16.11.2018 09:00:00 2,7 1,9 8,2 8,2 9 5 - - SSW 1022,5 50 0,0
16.11.2018 08:00:00 3,5 2,1 - - 11 6 - - S 1021,8 35 0,0
16.11.2018 07:00:00 4,2 3,2 - - 5 3 - - SSW 1021,1 50 0,0
16.11.2018 06:00:00 5,0 2,9 - - 5 3 - - SW 1020,0 45 0,0
16.11.2018 05:00:00 5,6 4,0 - - 13 7 - - S 1019,3 45 0,0
16.11.2018 04:00:00 5,2 4,3 - - 13 7 - - S 1018,5 40 0,0
16.11.2018 03:00:00 3,7 3,1 - - 9 5 - - SSW 1017,9 45 0,0
16.11.2018 02:00:00 4,2 3,1 - - 11 6 - - SW 1017,0 45 0,0
16.11.2018 01:00:00 5,0 4,5 - - 11 6 - - S 1016,3 50 0,0
16.11.2018 00:00:00 5,1 3,6 - - 11 6 - - SW 1015,4 50 0,0
15.11.2018 23:00:00 5,9 4,3 - - 8 4 - - NNW 1014,1 45 0,0
15.11.2018 22:00:00 7,9 5,9 - - 13 7 - - SSW 1012,9 50 0,0
15.11.2018 21:00:00 9,3 6,5 - - 22 12 - - SSW 1011,3 50 0,0
15.11.2018 20:00:00 10,6 6,7 - - 28 15 - - SW 1010,8 45 0,0
15.11.2018 19:00:00 11,5 6,6 - - 16 9 - - WSW 1009,8 50 0,0
15.11.2018 18:00:00 13,4 7,5 - - 28 15 - - SSW 1007,3 50 0,0
15.11.2018 17:00:00 12,5 6,2 - - 31 17 46 25 SSW 1007,0 50 0,0
15.11.2018 16:00:00 12,8 5,7 - - 35 19 54 29 S 1006,8 50 0,0
15.11.2018 15:00:00 14,5 5,6 - - 39 21 54 29 S 1006,3 35 0,0
15.11.2018 14:00:00 14,0 9,3 - - 28 15 - - S 1006,7 50 0,0
15.11.2018 13:00:00 14,2 9,6 - - 35 19 50 27 S 1007,8 45 0,0
15.11.2018 12:00:00 14,0 9,9 - - 29 16 48 26 S 1008,5 35 0,0
15.11.2018 11:00:00 13,9 9,6 - - 31 17 52 28 S 1008,7 50 0,0
15.11.2018 10:00:00 13,2 9,7 - - 24 13 - - S 1009,3 50 0,0
15.11.2018 09:00:00 10,8 10,1 8,0 8,0 8 4 - - S 1009,3 40 0,0
15.11.2018 08:00:00 11,5 10,4 - - 5 3 - - SSE 1009,5 30 0,0
15.11.2018 07:00:00 11,8 10,9 - - 5 3 - - S 1009,6 50 0,0
15.11.2018 06:00:00 13,0 11,2 - - 13 7 - - SSW 1009,6 8 0,0
15.11.2018 05:00:00 13,4 10,4 - - 11 6 - - SSW 1009,1 25 0,0
15.11.2018 04:00:00 13,9 10,4 - - 9 5 - - S 1008,5 50 0,0
15.11.2018 03:00:00 13,8 10,2 - - 9 5 - - S 1008,0 50 0,0
15.11.2018 02:00:00 13,8 10,3 - - 8 4 - - SSE 1007,8 50 0,0
15.11.2018 01:00:00 14,0 10,5 - - 21 11 - - S 1007,6 50 0,0
15.11.2018 00:00:00 14,1 10,6 - - 16 9 - - S 1007,2 50 0,0
14.11.2018 23:00:00 14,1 10,5 - - 18 10 - - S 1007,0 50 0,0
14.11.2018 22:00:00 15,0 10,8 - - 16 9 - - SSW 1006,8 50 0,0
14.11.2018 21:00:00 14,1 10,6 - - 5 3 - - S 1006,4 45 0,0
14.11.2018 20:00:00 14,3 11,1 - - 26 14 - - S 1005,8 50 0,0
14.11.2018 19:00:00 13,2 10,9 - - 8 4 - - SSW 1005,8 50 0,0
14.11.2018 18:00:00 14,1 11,8 - - 21 11 - - SSW 1005,3 50 0,0
14.11.2018 17:00:00 14,5 12,0 - - 34 18 52 28 SSW 1005,0 50 0,0
14.11.2018 16:00:00 13,7 11,6 - - 21 11 - - SSW 1004,9 50 0,0
14.11.2018 15:00:00 14,1 11,9 - - 31 17 - - SSW 1004,4 50 0,0
14.11.2018 14:00:00 13,8 11,6 - - 22 12 - - SSW 1004,3 40 0,0
14.11.2018 13:00:00 12,3 10,7 - - 11 6 - - S 1004,3 50 0,0
14.11.2018 12:00:00 11,2 10,3 - - 11 6 - - SSE 1004,5 30 0,4
14.11.2018 11:00:00 10,9 9,7 - - 11 6 - - SSE 1004,7 29 0,2
14.11.2018 10:00:00 10,7 9,3 - - 9 5 - - SE 1004,8 50 0,2
14.11.2018 09:00:00 9,7 8,3 7,2 8,0 8 4 - - E 1004,9 35 0,0
14.11.2018 08:00:00 9,7 8,1 - - 9 5 - - E 1005,1 50 0,0
14.11.2018 07:00:00 9,7 7,6 - - 2 1 - - SE 1005,2 45 0,0
14.11.2018 06:00:00 10,9 8,0 - - 8 4 - - SSE 1005,4 30 0,0
14.11.2018 05:00:00 10,5 7,9 - - 15 8 - - S 1005,5 50 0,0
14.11.2018 04:00:00 10,3 7,3 - - 15 8 - - S 1006,2 50 0,0
14.11.2018 03:00:00 10,3 7,8 - - 16 9 - - S 1006,8 45 0,0
14.11.2018 02:00:00 9,4 7,0 - - 9 5 - - ESE 1007,4 50 0,0
14.11.2018 01:00:00 9,2 6,7 - - 11 6 - - SE 1008,1 50 0,0
14.11.2018 00:00:00 9,9 6,3 - - 16 9 - - S 1008,5 50 0,0
13.11.2018 23:00:00 8,5 5,4 - - 5 3 - - SSE 1009,0 40 0,0
13.11.2018 22:00:00 8,6 5,3 - - 16 9 - - SSE 1008,8 40 0,0
13.11.2018 21:00:00 9,1 5,2 - - 21 11 - - S 1009,4 40 0,0
13.11.2018 20:00:00 8,3 5,4 - - 21 11 - - S 1009,5 50 0,0
13.11.2018 19:00:00 6,0 3,8 - - 13 7 - - S 1010,3 50 0,0
13.11.2018 18:00:00 7,5 5,0 - - 8 4 - - S 1010,4 40 0,0
13.11.2018 17:00:00 5,2 3,7 - - 8 4 - - S 1010,2 50 0,0
13.11.2018 16:00:00 6,7 4,4 - - 13 7 - - S 1009,9 50 0,0
13.11.2018 15:00:00 10,1 5,0 - - 16 9 - - WSW 1009,2 50 0,0
13.11.2018 14:00:00 - - - - 18 10 - - WSW - - 0,0
13.11.2018 13:00:00 - - - - 13 7 - - W - - 0,0
13.11.2018 12:00:00 - - - - 15 8 - - SW - - 0,0
13.11.2018 11:00:00 8,6 6,9 - - 15 8 - - SW 1006,4 40 0,0
13.11.2018 10:00:00 4,1 4,0 - - 5 3 - - WSW 1005,5 50 0,2
13.11.2018 09:00:00 2,7 2,7 8,2 8,7 15 8 - - SW 1004,4 45 0,0
13.11.2018 08:00:00 1,4 1,3 - - 9 5 - - W 1003,5 26 0,0
13.11.2018 07:00:00 0,8 0,8 - - 8 4 - - SSW 1002,4 1,2 0,0
13.11.2018 06:00:00 0,0 -0,2 - - 5 3 - - SSW 1001,5 13 0,0
13.11.2018 05:00:00 0,4 0,2 - - 9 5 - - SW 1000,7 12 0,0
13.11.2018 04:00:00 2,9 2,8 - - 2 1 - - SSW 1000,0 1,2 0,0
13.11.2018 03:00:00 3,0 2,9 - - 8 4 - - SW 999,7 16 0,0
13.11.2018 02:00:00 2,0 1,5 - - 5 3 - - SW 999,2 35 0,0
13.11.2018 01:00:00 2,3 1,9 - - 11 6 - - WSW 998,7 40 0,0
13.11.2018 00:00:00 3,5 3,1 - - 11 6 - - S 998,4 50 0,0
12.11.2018 23:00:00 3,3 2,4 - - 4 2 - - N 998,3 45 0,0
12.11.2018 22:00:00 6,4 4,5 - - 8 4 - - S 998,0 50 0,0
12.11.2018 21:00:00 7,5 5,7 - - 11 6 - - S 998,0 45 0,0
12.11.2018 20:00:00 7,6 5,8 - - 11 6 - - S 997,9 40 0,2
12.11.2018 19:00:00 8,4 6,4 - - 11 6 - - S 997,8 50 0,2
12.11.2018 18:00:00 8,7 5,8 - - 9 5 - - S 997,6 50 0,0
12.11.2018 17:00:00 8,5 5,8 - - 15 8 - - S 997,1 50 0,0
12.11.2018 16:00:00 8,5 5,7 - - 9 5 - - SSE 996,9 40 0,0
12.11.2018 15:00:00 10,6 6,6 - - 9 5 - - S 996,7 35 0,0
12.11.2018 14:00:00 10,7 6,2 - - 15 8 - - S 996,7 50 0,0
12.11.2018 13:00:00 10,3 6,8 - - 18 10 - - S 996,7 50 0,0
12.11.2018 12:00:00 10,0 6,7 - - 16 9 - - S 996,6 40 0,0
12.11.2018 11:00:00 9,3 6,5 - - 21 11 - - SSW 996,6 50 0,0
12.11.2018 10:00:00 8,8 6,6 - - 16 9 - - SSW 996,2 50 0,0
12.11.2018 09:00:00 6,1 4,8 8,2 8,7 11 6 - - SSW 996,0 50 0,0
12.11.2018 08:00:00 5,0 4,3 - - 13 7 - - S 995,8 50 0,0
12.11.2018 07:00:00 4,3 4,3 - - 13 7 - - S 995,5 50 0,0
12.11.2018 06:00:00 3,5 3,5 - - 8 4 - - S 995,2 50 0,0
12.11.2018 05:00:00 2,1 2,1 - - 5 3 - - W 994,9 0,6 0,0
12.11.2018 04:00:00 1,7 1,7 - - 4 2 - - SE 994,8 35 0,0
12.11.2018 03:00:00 1,4 1,4 - - 5 3 - - SW 994,8 3,8 0,0
12.11.2018 02:00:00 1,8 1,8 - - 4 2 - - SW 994,8 2,6 0,0
12.11.2018 01:00:00 0,7 0,7 - - 4 2 - - W 995,0 5 0,0
12.11.2018 00:00:00 1,2 1,1 - - 2 1 - - NW 994,8 0,4 0,0
11.11.2018 23:00:00 3,1 3,1 - - 5 3 - - S 994,5 11 0,0
11.11.2018 22:00:00 2,1 2,0 - - 8 4 - - SW 994,3 1,3 0,0
11.11.2018 21:00:00 2,9 2,9 - - 11 6 - - S 993,7 - 0,0
11.11.2018 20:00:00 3,1 3,0 - - 8 4 - - S 993,1 0,2 0,2
11.11.2018 19:00:00 2,8 2,6 - - 8 4 - - WSW 992,8 0,3 0,0
11.11.2018 18:00:00 4,9 4,8 - - 0 0 - - N 992,2 0,4 0,0
11.11.2018 17:00:00 5,8 5,7 - - 2 1 - - W 991,9 9 1,2
11.11.2018 16:00:00 5,9 5,8 - - 4 2 - - W 991,3 11 0,2
11.11.2018 15:00:00 5,7 5,6 - - 5 3 - - W 990,8 12 0,0
11.11.2018 14:00:00 6,1 6,0 - - 4 2 - - E 990,8 30 0,0
11.11.2018 13:00:00 5,5 5,5 - - 5 3 - - ESE 990,9 30 0,0
11.11.2018 12:00:00 4,7 4,7 - - 9 5 - - NW 990,8 3,2 0,0
11.11.2018 11:00:00 3,8 3,8 - - 5 3 - - SSW 991,1 7 0,2
11.11.2018 10:00:00 3,0 3,0 - - 5 3 - - WSW 990,8 0,3 0,0
11.11.2018 09:00:00 2,5 2,4 8,7 8,7 4 2 - - SSW 990,3 0,1 0,0
11.11.2018 08:00:00 3,7 3,6 - - 4 2 - - W 989,7 - 0,0
11.11.2018 07:00:00 3,5 3,5 - - 5 3 - - S 989,2 0,2 0,0
11.11.2018 06:00:00 3,1 3,0 - - 9 5 - - SW 988,6 0,2 0,0
11.11.2018 05:00:00 2,2 2,0 - - 8 4 - - SSE 988,6 0,2 0,0
11.11.2018 04:00:00 2,9 2,7 - - 11 6 - - SW 988,4 1,8 0,0
11.11.2018 03:00:00 3,3 3,0 - - 4 2 - - SW 988,2 1,0 0,0

tt = temperature
td = dewpoint
tt -20cm = temperature -20cm
tt -100cm = temperature -100cm
ff = wind speed
fx = gusts
dd = wind direction
ppp = reduced air pressure
vv = visibility
rr = precipitation

Next stations